This is the latest recevied weather packets stored in our database for station/object DM5KA-13. If no packets are shown the sender has not sent any weather packets the latest 10 day(s).
| Time | Temp. | Humidity | Pressure | Rain* | Wind** | Luminosity | Snow |
|---|---|---|---|---|---|---|---|
| 1778134208 | 8.89° C | 99% | 1011.2 hPa | 3.3 mm | 0.45 m/s, 0° | - | - |
| 1778133907 | 8.89° C | 99% | 1011.1 hPa | 3.3 mm | 0.45 m/s, 0° | - | - |
| 1778133608 | 8.89° C | 99% | 1011.1 hPa | 2.79 mm | 0.45 m/s, 0° | - | - |
| 1778133307 | 8.89° C | 99% | 1011 hPa | 3.56 mm | 0 m/s | - | - |
| 1778133008 | 8.89° C | 99% | 1011 hPa | 3.3 mm | 0.45 m/s, 0° | - | - |
| 1778132708 | 8.89° C | 99% | 1010.9 hPa | 3.56 mm | 0.45 m/s, 0° | - | - |
| 1778132408 | 8.89° C | 99% | 1010.9 hPa | 3.56 mm | 0.45 m/s, 0° | - | - |
| 1778132108 | 8.89° C | 99% | 1010.9 hPa | 3.56 mm | 0.45 m/s, 0° | - | - |
| 1778131808 | 8.89° C | 99% | 1010.9 hPa | 3.3 mm | 0.45 m/s, 0° | - | - |
| 1778131520 | 8.89° C | 99% | 1010.7 hPa | 3.3 mm | 0.45 m/s, 0° | - | - |
| 1778131219 | 8.89° C | 99% | 1010.5 hPa | 2.79 mm | 0.45 m/s, 0° | - | - |
| 1778130907 | 8.89° C | 99% | 1010.5 hPa | 2.79 mm | 0 m/s | - | - |
| 1778130607 | 8.89° C | 99% | 1010.4 hPa | 2.54 mm | 0.45 m/s, 0° | - | - |
| 1778130307 | 10° C | 99% | 1010.6 hPa | 2.03 mm | 0.45 m/s, 0° | - | - |
| 1778130007 | 8.89° C | 99% | 1010.9 hPa | 1.78 mm | 0 m/s | - | - |
| 1778129707 | 8.89° C | 99% | 1010.7 hPa | 1.78 mm | 0.45 m/s, 0° | - | - |
| 1778129407 | 8.89° C | 99% | 1010.6 hPa | 1.27 mm | 0 m/s | - | - |
| 1778129107 | 8.89° C | 99% | 1010.4 hPa | 1.27 mm | 0.45 m/s, 0° | - | - |
| 1778128807 | 8.89° C | 99% | 1010.3 hPa | 1.02 mm | 0.45 m/s, 0° | - | - |
| 1778128507 | 8.89° C | 99% | 1010.3 hPa | 1.02 mm | 0.45 m/s, 0° | - | - |
| 1778128207 | 10° C | 99% | 1010.3 hPa | 0.51 mm | 0.45 m/s, 0° | - | - |
| 1778127907 | 8.89° C | 99% | 1010.4 hPa | 1.02 mm | 0.45 m/s, 0° | - | - |
| 1778127607 | 10° C | 99% | 1010.3 hPa | 1.27 mm | 0.45 m/s, 0° | - | - |
| 1778127307 | 10° C | 99% | 1010.2 hPa | 1.78 mm | 0.45 m/s, 0° | - | - |
| 1778127007 | 8.89° C | 99% | 1010.1 hPa | 2.03 mm | 0 m/s | - | - |
* Rain latest hour (hover to see other rain measurements)
** Current wind speed in m/s (hover to see current wind gust speed)